Weather History for KANB - November, 2012

Change the Weather History Date:

Thursday, November 8, 2012

  Actual Average Record
Temperature  
Mean Temperature 48 °F 56 °F  
Max Temperature 62 °F 68 °F 84 °F (2005)
Min Temperature 33 °F 44 °F 24 °F (1967)
Degree Days  
Heating Degree Days 17    
Month to date heating degree days 104  
Since 1 July heating degree days 257  
Moisture  
Dew Point 37 °F    
Average Humidity 71    
Maximum Humidity 100    
Minimum Humidity 42    
Precipitation  
Precipitation 0.00 in 0.15 in 1.86 in (1943)
Month to date precipitation 0.52 1.08  
Year to date precipitation 38.79 42.05  
Sea Level Pressure  
Sea Level Pressure 30.20 in    
Wind  
Wind Speed 2 mph (NW)    
Max Wind Speed 9 mph    
Max Gust Speed 14 mph    
Visibility 3 miles    
Events Fog    
T = Trace of Precipitation, MM = Missing Value Source: NWS Daily Summary

Daily Weather History Graph

Daily Weather History Graph

Search for Another Location

Airport or City:

Trip Planner

Search our weather history database for the weather conditions in past years. The results will help you decide how hot, cold, wet, or windy it might be!

Date:

Astronomy

Nov. 08, 2012 Rise Set
Actual Time 6:09 AM CST 4:44 PM CST
Civil Twilight 5:42 AM CST 5:11 PM CST
Nautical Twilight 5:13 AM CST 5:40 PM CST
Astronomical Twilight 4:43 AM CST 6:10 PM CST
Moon 12:20 AM CST (11/8) 1:10 PM CST (11/8)
Length of Visible Light 11h 28m
Length of Day
10h 35m
Waning Crescent, 32% of the Moon is Illuminated
Nov 8
Waning Crescent
Nov 13
New
Nov 20
First Quarter
Nov 28
Full
Dec 6
Last Quarter

Hourly Weather History & Observations

Time (CST) Temp. Windchill Dew Point Humidity Pressure Visibility Wind Dir Wind Speed Gust Speed Precip Events Conditions
12:01 AM 35.6 °F - 33.8 °F 93% 30.11 in 1.8 mi Calm Calm - N/A   Clear
12:08 AM 37.4 °F - 35.6 °F 93% 30.11 in 3.0 mi Calm Calm - N/A   Clear
12:53 AM 36.0 °F - 35.1 °F 97% 30.14 in 4.0 mi Calm Calm - N/A   Clear
1:40 AM 35.6 °F - 33.8 °F 93% 30.13 in 1.8 mi Calm Calm - N/A   Clear
1:49 AM 35.6 °F - 33.8 °F 93% 30.13 in 2.5 mi Calm Calm - N/A   Partly Cloudy
1:53 AM 35.1 °F - 34.0 °F 96% 30.15 in 3.0 mi Calm Calm - N/A   Partly Cloudy
1:56 AM 35.6 °F - 33.8 °F 93% 30.13 in 1.0 mi Calm Calm - N/A   Mist
2:15 AM 33.8 °F 30.8 °F 33.8 °F 100% 30.13 in 0.5 mi WSW 3.5 mph - N/A Fog Fog
2:53 AM 33.1 °F 27.7 °F 33.1 °F 100% 30.16 in 0.2 mi WSW 5.8 mph - N/A Fog Fog
3:53 AM 34.0 °F - 34.0 °F 100% 30.18 in 0.2 mi Calm Calm - N/A Fog Fog
4:53 AM 35.1 °F - 35.1 °F 100% 30.19 in 0.2 mi Calm Calm - N/A Fog Fog
5:53 AM 34.0 °F - 34.0 °F 100% 30.22 in 0.2 mi Calm Calm - N/A Fog Fog
6:53 AM 34.0 °F - 34.0 °F 100% 30.24 in 0.2 mi Calm Calm - N/A Fog Fog
7:53 AM 37.9 °F - 37.9 °F 100% 30.26 in 0.2 mi Calm Calm - N/A Fog Fog
8:33 AM 39.2 °F - 39.2 °F 100% 30.24 in 1.0 mi Calm Calm - N/A   Overcast
8:46 AM 41.0 °F - 39.2 °F 93% 30.24 in 2.0 mi Calm Calm - N/A   Overcast
8:53 AM 41.0 °F - 41.0 °F 100% 30.27 in 2.5 mi Calm Calm - N/A   Overcast
9:02 AM 42.8 °F - 42.8 °F 100% 30.24 in 3.0 mi Calm Calm - N/A   Mostly Cloudy
9:05 AM 42.8 °F - 42.8 °F 100% 30.24 in 3.0 mi Calm Calm - N/A   Scattered Clouds
9:53 AM 50.0 °F - 39.9 °F 68% 30.26 in 5.0 mi Variable 3.5 mph - N/A   Haze
11:53 AM 57.9 °F - 37.9 °F 47% 30.21 in 8.0 mi North 6.9 mph - N/A   Clear
12:53 PM 59.0 °F - 37.9 °F 46% 30.19 in 8.0 mi NNW 8.1 mph - N/A   Clear
1:53 PM 61.0 °F - 37.9 °F 42% 30.18 in 8.0 mi North 9.2 mph - N/A   Clear
2:53 PM 60.1 °F - 39.0 °F 46% 30.18 in 8.0 mi Calm Calm - N/A   Clear
3:53 PM 60.1 °F - 39.0 °F 46% 30.19 in 8.0 mi NNW 4.6 mph - N/A   Clear
4:53 PM 52.0 °F - 39.9 °F 63% 30.20 in 8.0 mi Calm Calm - N/A   Clear
5:53 PM 44.1 °F - 41.0 °F 89% 30.22 in 7.0 mi Calm Calm - N/A   Clear
6:53 PM 44.1 °F - 41.0 °F 89% 30.23 in 6.0 mi Calm Calm - N/A   Clear
7:53 PM 41.0 °F - 39.9 °F 96% 30.24 in 6.0 mi Calm Calm - N/A   Clear
8:53 PM 37.9 °F - 36.0 °F 93% 30.24 in 5.0 mi Calm Calm - N/A   Clear
9:35 PM 37.4 °F - 37.4 °F 100% 30.22 in 2.5 mi Calm Calm - N/A   Clear
9:48 PM 37.4 °F - 35.6 °F 93% 30.22 in 1.2 mi Calm Calm - N/A   Clear
9:53 PM 37.9 °F - 36.0 °F 93% 30.24 in 2.5 mi Calm Calm - N/A   Clear
10:01 PM 39.2 °F - 37.4 °F 93% 30.22 in 4.0 mi Calm Calm - N/A   Clear
10:19 PM 37.4 °F - 35.6 °F 93% 30.22 in 1.8 mi Calm Calm - N/A   Clear
10:31 PM 37.4 °F - 35.6 °F 93% 30.22 in 3.0 mi Calm Calm - N/A   Clear
10:46 PM 37.4 °F - 35.6 °F 93% 30.22 in 1.0 mi Calm Calm - N/A   Mist
10:53 PM 37.0 °F - 37.0 °F 100% 30.24 in 0.2 mi Calm Calm - N/A Fog Fog
11:14 PM 35.6 °F - 35.6 °F 100% 30.22 in 1.2 mi Calm Calm - N/A   Mostly Cloudy
11:20 PM 35.6 °F - 35.6 °F 100% 30.22 in 3.0 mi Calm Calm - N/A   Scattered Clouds
11:42 PM 35.6 °F - 35.6 °F 100% 30.21 in 2.5 mi Calm Calm - N/A   Clear
11:53 PM 36.0 °F - 35.1 °F 97% 30.23 in 3.0 mi Calm Calm - N/A   Clear